EW9081 Weather Reports


time (UTC)temp
F
wind
direction
speed
knots
gust
knots
rain 1hr
in
rain 24hr
in
rain mn
in
humidity
%
barometer
mb
20260507030120 54 239 2.6 8.7 0.00 0.00 0.00 80 1020.8
20260507025620 54 231 2.6 8.7 0.00 0.00 0.00 80 1020.8
20260507025121 54 257 2.6 8.7 0.00 0.00 0.00 80 1020.8
20260507024620 54 268 2.6 8.7 0.00 0.00 0.00 80 1020.8
20260507024120 55 300 1.7 6.1 0.00 0.00 0.00 79 1020.7
20260507023620 55 243 2.6 7.8 0.00 0.00 0.00 79 1020.6
20260507023122 55 305 3.5 10.4 0.00 0.00 0.00 78 1020.6
20260507022620 56 249 2.6 10.4 0.00 0.00 0.00 78 1020.6
20260507022120 56 233 2.6 8.7 0.00 0.00 0.00 78 1020.6
20260507021620 56 243 3.5 8.7 0.00 0.00 0.00 77 1020.7
20260507021121 56 299 3.5 9.6 0.00 0.00 0.00 77 1020.7
20260507020621 57 300 3.5 9.6 0.00 0.00 0.00 76 1020.6
20260507020121 57 248 3.5 9.6 0.00 0.00 0.00 76 1020.7
20260507015621 57 284 3.5 9.6 0.00 0.00 0.00 75 1020.7
20260507015121 58 319 3.5 8.7 0.00 0.00 0.00 75 1020.7
20260507014621 58 314 3.5 8.7 0.00 0.00 0.00 75 1020.7
20260507014120 58 226 3.5 8.7 0.00 0.00 0.00 75 1020.7
20260507013621 58 333 3.5 10.4 0.00 0.00 0.00 74 1020.7
20260507013121 58 238 3.5 10.4 0.00 0.00 0.00 74 1020.7
20260507012620 58 338 4.3 8.7 0.00 0.00 0.00 74 1020.7
20260507012125 59 261 4.3 12.2 0.00 0.00 0.00 74 1020.8
20260507012120 58 219 4.3 12.2 0.00 0.00 0.00 74 1020.8
20260507011121 59 278 4.3 9.6 0.00 0.00 0.00 74 1020.8
20260507010621 59 304 4.3 10.4 0.00 0.00 0.00 73 1020.8
20260507010121 59 284 4.3 10.4 0.00 0.00 0.00 72 1020.9
20260507005626 60 286 3.5 8.7 0.00 0.00 0.00 72 1020.7
20260507005622 60 265 4.3 9.6 0.00 0.00 0.00 73 1020.8
20260507004620 60 229 3.5 8.7 0.00 0.00 0.00 72 1020.7
20260507004120 60 287 3.5 12.2 0.00 0.00 0.00 74 1020.7
20260507003620 60 245 3.5 12.2 0.00 0.00 0.00 71 1020.7
20260507003126 61 243 4.3 11.3 0.00 0.00 0.00 71 1020.6
20260507003122 60 236 4.3 10.4 0.00 0.00 0.00 71 1020.7
20260507002122 61 257 4.3 11.3 0.00 0.00 0.00 71 1020.7
20260507001620 61 298 5.2 13.0 0.00 0.00 0.00 70 1020.7
20260507001120 61 269 4.3 13.0 0.00 0.00 0.00 70 1020.7
20260507000623 62 263 4.3 13.0 0.00 0.00 0.00 70 1020.7
20260507000617 62 254 4.3 13.0 0.00 0.00 0.00 70 1020.6
20260506235616 61 280 4.3 12.2 0.00 0.00 0.00 71 1020.6
20260506235120 62 235 4.3 12.2 0.00 0.00 0.00 69 1020.5
20260506235116 62 294 4.3 12.2 0.00 0.00 0.00 70 1020.5
20260506234117 62 319 4.3 10.4 0.00 0.00 0.00 72 1020.6
20260506233617 62 259 4.3 9.6 0.00 0.00 0.00 70 1020.6
20260506233113 62 262 4.3 11.3 0.00 0.00 0.00 69 1020.6
20260506232619 63 307 2.6 13.9 0.00 0.00 0.00 70 1020.6
20260506232614 63 268 3.5 11.3 0.00 0.00 0.00 69 1020.6
20260506232227 63 272 4.3 13.9 0.00 0.00 0.00 71 1020.6
20260506231115 62 229 6.1 12.2 0.00 0.00 0.00 70 1020.6
20260506230614 63 222 5.2 12.2 0.00 0.00 0.00 68 1020.6
20260506230117 63 253 3.5 9.6 0.00 0.00 0.00 68 1020.7
20260506230112 63 167 4.3 12.2 0.00 0.00 0.00 69 1020.7
20260506225112 64 194 3.5 8.7 0.00 0.00 0.00 68 1020.7
20260506224612 64 238 3.5 8.7 0.00 0.00 0.00 67 1020.7
20260506224110 64 224 3.5 11.3 0.00 0.00 0.00 68 1020.6
20260506223611 64 275 4.3 12.2 0.00 0.00 0.00 72 1020.6
20260506223111 63 232 4.3 12.2 0.00 0.00 0.00 69 1020.7
20260506222611 64 221 4.3 11.3 0.00 0.00 0.00 68 1020.6
20260506222110 64 252 4.3 11.3 0.00 0.00 0.00 68 1020.8
20260506221615 64 275 4.3 10.4 0.00 0.00 0.00 69 1020.7
20260506221610 64 295 4.3 11.3 0.00 0.00 0.00 70 1020.7
20260506221225 64 255 4.3 11.3 0.00 0.00 0.00 68 1020.6
20260506220110 64 258 5.2 11.3 0.00 0.00 0.00 69 1020.6
20260506215610 64 211 4.3 11.3 0.00 0.00 0.00 70 1020.5
20260506215108 64 292 4.3 11.3 0.00 0.00 0.00 70 1020.6
20260506214609 64 280 4.3 12.2 0.00 0.00 0.00 66 1020.5
20260506214109 65 219 4.3 12.2 0.00 0.00 0.00 68 1020.5
20260506213612 65 257 4.3 11.3 0.00 0.00 0.00 65 1020.6
20260506213608 65 339 4.3 9.6 0.00 0.00 0.00 68 1020.6
20260506213222 65 236 3.5 11.3 0.00 0.00 0.00 70 1020.7
20260506212113 65 299 4.3 9.6 0.00 0.00 0.00 70 1020.6
20260506212109 65 254 3.5 9.6 0.00 0.00 0.00 70 1020.7
20260506211223 64 254 3.5 8.7 0.00 0.00 0.00 71 1020.6
20260506211113 65 243 3.5 8.7 0.00 0.00 0.00 66 1020.6
20260506211109 65 284 4.3 9.6 0.00 0.00 0.00 67 1020.7
20260506210220 64 262 4.3 12.2 0.00 0.00 0.00 69 1020.7
20260506205107 64 309 6.1 13.9 0.00 0.00 0.00 67 1020.7
20260506204606 64 190 4.3 13.9 0.00 0.00 0.00 70 1020.7
20260506204106 64 227 3.5 10.4 0.00 0.00 0.00 69 1020.7
20260506203606 64 282 5.2 10.4 0.00 0.00 0.00 73 1020.7
20260506203106 63 215 4.3 11.3 0.00 0.00 0.00 71 1020.7
20260506202606 63 236 5.2 11.3 0.00 0.00 0.00 68 1020.7
20260506202105 63 227 4.3 10.4 0.00 0.00 0.00 70 1020.7
20260506201605 64 224 3.5 10.4 0.00 0.00 0.00 70 1020.7
20260506201110 64 244 3.5 10.4 0.00 0.00 0.00 71 1020.9
20260506201106 64 229 3.5 10.4 0.00 0.00 0.00 70 1020.8
20260506195602 63 263 3.5 7.8 0.00 0.00 0.00 71 1021.0
20260506195102 63 144 3.5 7.8 0.00 0.00 0.00 74 1020.9
20260506194602 63 259 3.5 7.8 0.00 0.00 0.00 72 1021.0
20260506194101 63 232 3.5 9.6 0.00 0.00 0.00 73 1021.0
20260506193607 63 302 3.5 10.4 0.00 0.00 0.00 71 1020.9
20260506193602 63 205 3.5 10.4 0.00 0.00 0.00 70 1020.9
20260506192603 63 299 4.3 11.3 0.00 0.00 0.00 71 1021.0
20260506192107 63 219 3.5 8.7 0.00 0.00 0.00 73 1021.0
20260506192103 63 292 4.3 11.3 0.00 0.00 0.00 73 1021.0
20260506191102 63 195 5.2 13.0 0.00 0.00 0.00 73 1020.9
20260506190607 63 213 2.6 7.8 0.00 0.00 0.00 75 1020.9
20260506190601 63 222 4.3 13.0 0.00 0.00 0.00 71 1020.9
20260506190215 63 236 2.6 8.7 0.00 0.00 0.00 72 1020.9
20260506185603 63 238 2.6 8.7 0.00 0.00 0.00 72 1020.8
20260506184601 62 304 2.6 6.1 0.00 0.00 0.00 71 1020.8
20260506184059 62 288 2.6 6.1 0.00 0.00 0.00 74 1020.8
20260506183559 62 201 1.7 6.1 0.00 0.00 0.00 73 1020.8
20260506183058 62 233 1.7 6.1 0.00 0.00 0.00 73 1020.8
20260506182556 62 267 1.7 6.1 0.00 0.00 0.00 75 1020.8
20260506182056 61 233 1.7 4.3 0.00 0.00 0.00 75 1020.9
20260506181557 61 259 2.6 5.2 0.00 0.00 0.00 77 1020.9
20260506181056 61 259 1.7 5.2 0.00 0.00 0.00 78 1020.9
20260506180557 60 230 1.7 5.2 0.00 0.00 0.00 77 1020.9
20260506180055 60 236 1.7 6.1 0.00 0.00 0.00 77 1021.0
20260506175554 60 278 1.7 6.1 0.00 0.00 0.00 78 1021.1
20260506175052 59 276 1.7 5.2 0.00 0.00 0.00 77 1021.0
20260506174551 59 287 1.7 5.2 0.00 0.00 0.00 77 1020.9
20260506174052 59 264 0.9 3.5 0.00 0.00 0.00 79 1020.9
20260506173555 59 252 0.9 1.7 0.00 0.00 0.00 78 1020.8
20260506173550 59 269 0.9 3.5 0.00 0.00 0.00 78 1020.9
20260506172553 58 255 0.9 3.5 0.00 0.00 0.00 80 1020.8
20260506172548 58 250 0.9 3.5 0.00 0.00 0.00 78 1020.8
20260506171549 58 181 0.9 3.5 0.00 0.00 0.00 79 1020.6
20260506171049 58 180 1.7 4.3 0.00 0.00 0.00 78 1020.7
20260506170546 58 225 0.9 4.3 0.00 0.00 0.00 79 1020.8
20260506170045 57 226 0.9 3.5 0.00 0.00 0.00 80 1020.8
20260506165547 57 230 0.9 4.3 0.00 0.00 0.00 81 1021.0
20260506165045 57 292 0.9 4.3 0.00 0.00 0.00 81 1021.0
20260506164546 57 213 0.9 2.6 0.00 0.00 0.00 80 1021.0
20260506164047 57 275 0.9 2.6 0.00 0.00 0.00 81 1021.0
20260506163547 56 270 0.9 1.7 0.00 0.00 0.00 81 1020.9
20260506163046 56 234 0.9 1.7 0.00 0.00 0.00 81 1020.9
20260506162547 56 250 0.9 1.7 0.00 0.00 0.00 81 1020.9
20260506162046 56 217 0.9 3.5 0.00 0.00 0.00 82 1021.0
20260506161546 56 215 0.9 3.5 0.00 0.00 0.00 83 1020.9
20260506161046 56 277 0.9 2.6 0.00 0.00 0.00 83 1021.0
20260506160546 55 301 0.9 2.6 0.00 0.00 0.00 82 1020.9
20260506160045 55 250 0.9 2.6 0.00 0.00 0.00 83 1020.9
20260506155546 55 260 0.9 2.6 0.00 0.00 0.00 83 1020.8
20260506155047 55 248 0.9 2.6 0.00 0.00 0.00 83 1020.8
20260506154543 55 244 0.9 4.3 0.00 0.00 0.00 84 1020.7
20260506154044 55 215 1.7 4.3 0.00 0.00 0.00 82 1020.6
20260506153543 55 186 1.7 4.3 0.00 0.00 0.00 83 1020.6
20260506153044 54 213 1.7 4.3 0.00 0.00 0.00 83 1020.5
20260506152541 54 236 2.6 7.0 0.00 0.00 0.00 83 1020.3
20260506152039 54 222 2.6 7.0 0.00 0.00 0.00 83 1020.6
20260506151539 54 229 2.6 7.0 0.00 0.00 0.00 84 1020.7
20260506151035 54 199 2.6 7.0 0.00 0.00 0.00 83 1020.8
20260506150537 54 217 1.7 5.2 0.00 0.00 0.00 84 1020.7
20260506150036 53 248 1.7 6.1 0.00 0.00 0.00 85 1020.9
20260506145535 53 220 2.6 6.1 0.00 0.00 0.00 85 1020.9
20260506145042 53 298 2.6 8.7 0.00 0.00 0.00 86 1020.8
20260506145036 53 240 1.7 6.1 0.00 0.00 0.00 85 1020.9
20260506144537 53 252 1.7 6.1 0.00 0.00 0.00 86 1020.8
20260506144148 53 259 2.6 8.7 0.00 0.00 0.00 86 1020.9
20260506143036 53 261 2.6 7.8 0.00 0.00 0.00 87 1020.8
20260506143032 52 271 2.6 7.0 0.00 0.00 0.00 87 1020.8
20260506142031 52 265 2.6 9.6 0.00 0.00 0.00 87 1020.6
20260506141529 52 290 1.7 9.6 0.00 0.00 0.00 87 1020.5
20260506141029 52 290 1.7 3.5 0.00 0.00 0.00 88 1020.3
20260506140529 52 265 1.7 3.5 0.00 0.00 0.00 89 1020.2
20260506140025 51 254 1.7 5.2 0.00 0.00 0.00 89 1020.1
20260506135526 51 248 0.9 5.2 0.00 0.00 0.00 90 1020.1
20260506135023 51 180 0.9 3.5 0.00 0.00 0.00 91 1019.9
20260506134523 50 236 0.0 1.7 0.00 0.00 0.00 91 1020.0
20260506134023 50 233 0.0 1.7 0.00 0.00 0.00 91 1019.9
20260506133523 50 233 0.0 1.7 0.00 0.00 0.00 90 1019.9
20260506133021 50 238 0.0 1.7 0.00 0.00 0.00 90 1019.9
20260506132522 50 238 0.0 1.7 0.00 0.00 0.00 90 1019.9
20260506132021 50 236 0.0 1.7 0.00 0.00 0.00 90 1019.9
20260506131526 50 235 0.0 2.6 0.00 0.00 0.00 90 1019.8
20260506131521 50 236 0.0 2.6 0.00 0.00 0.00 90 1019.9
20260506130521 50 234 0.0 1.7 0.00 0.00 0.00 89 1019.8
20260506130021 50 234 0.0 1.7 0.00 0.00 0.00 89 1019.7
20260506125523 50 223 0.0 1.7 0.00 0.00 0.00 89 1019.7
20260506125023 50 223 0.0 2.6 0.00 0.00 0.00 89 1019.6
20260506124526 51 214 0.0 1.7 0.00 0.00 0.00 88 1019.6
20260506124522 51 223 0.0 2.6 0.00 0.00 0.00 88 1019.7
20260506123520 51 213 0.9 3.5 0.00 0.00 0.00 88 1019.5
20260506123019 51 217 1.7 4.3 0.00 0.00 0.00 87 1019.4
20260506122519 51 219 1.7 4.3 0.00 0.00 0.00 88 1019.3
20260506122019 51 205 1.7 3.5 0.00 0.00 0.00 88 1019.4
20260506121524 52 228 1.7 7.8 0.00 0.00 0.00 88 1019.5
20260506121519 52 246 1.7 5.2 0.00 0.00 0.00 87 1019.5
20260506120521 52 264 1.7 7.8 0.00 0.00 0.00 88 1019.5
20260506120020 52 241 1.7 5.2 0.00 0.00 0.00 88 1019.6
20260506115519 52 253 0.9 6.1 0.00 0.00 0.00 88 1019.6
20260506115016 52 232 1.7 6.1 0.00 0.00 0.00 88 1019.4
20260506114519 52 257 1.7 6.1 0.00 0.00 0.00 88 1019.4
20260506114017 52 242 1.7 7.8 0.00 0.00 0.00 88 1019.4
20260506113518 52 252 1.7 7.8 0.00 0.00 0.00 87 1019.3
20260506113017 52 244 2.6 6.1 0.00 0.00 0.00 88 1019.3
20260506112523 53 211 1.7 6.1 0.00 0.00 0.00 88 1019.2
20260506112517 52 251 2.6 7.0 0.00 0.00 0.00 87 1019.3
20260506112018 52 253 1.7 7.0 0.00 0.00 0.00 88 1019.3
20260506111517 52 255 1.7 6.1 0.00 0.00 0.00 87 1019.3
20260506110520 53 268 1.7 6.1 0.00 0.00 0.00 87 1019.1
20260506110516 53 247 2.6 8.7 0.00 0.00 0.00 88 1019.1
20260506105519 52 302 1.7 7.0 0.00 0.00 0.00 88 1018.9
20260506105514 53 259 2.6 8.7 0.00 0.00 0.00 88 1019.0
20260506105014 52 233 2.6 7.8 0.00 0.00 0.00 88 1019.0
20260506104020 52 310 1.7 7.0 0.00 0.00 0.00 89 1018.7
20260506104014 52 264 1.7 7.0 0.00 0.00 0.00 89 1018.7
20260506103515 52 227 1.7 7.0 0.00 0.00 0.00 89 1018.7
20260506102515 52 219 1.7 5.2 0.00 0.00 0.00 90 1018.7
20260506102015 51 238 1.7 5.2 0.00 0.00 0.00 90 1018.6
20260506101516 51 245 0.9 5.2 0.00 0.00 0.00 90 1018.6
20260506101012 51 269 0.9 5.2 0.00 0.00 0.00 90 1018.6
20260506100514 51 206 1.7 6.1 0.00 0.00 0.00 90 1018.5
20260506100011 51 248 1.7 6.1 0.00 0.00 0.00 90 1018.5
20260506095511 51 252 1.7 6.1 0.00 0.00 0.00 90 1018.5
20260506095011 51 257 1.7 5.2 0.00 0.00 0.00 90 1018.4
20260506094516 51 248 0.9 3.5 0.00 0.00 0.00 91 1018.3
20260506094511 51 251 1.7 4.3 0.00 0.00 0.00 90 1018.4
20260506094010 51 251 1.7 4.3 0.00 0.00 0.00 90 1018.3
20260506093013 51 244 1.7 4.3 0.00 0.00 0.00 91 1018.2
20260506093009 51 288 1.7 4.3 0.00 0.00 0.00 91 1018.2
20260506092622 51 290 0.9 3.5 0.00 0.00 0.00 91 1018.2
20260506091508 51 247 0.9 2.6 0.00 0.00 0.00 91 1018.2
20260506091006 51 252 0.9 3.5 0.00 0.00 0.00 91 1018.2
20260506090507 51 254 0.9 4.3 0.00 0.00 0.00 91 1018.2
20260506090006 51 257 0.9 4.3 0.00 0.00 0.00 92 1018.2
20260506085507 51 244 0.9 3.5 0.00 0.00 0.00 91 1018.2
20260506085007 51 257 0.9 3.5 0.00 0.00 0.00 91 1018.1
20260506084508 51 239 0.0 2.6 0.00 0.00 0.00 91 1018.1
20260506084007 51 290 0.0 1.7 0.00 0.00 0.00 91 1018.0
20260506083507 51 234 0.9 1.7 0.00 0.00 0.00 91 1018.0
20260506083004 51 248 0.9 3.5 0.00 0.00 0.00 91 1017.9
20260506082504 51 251 0.9 3.5 0.00 0.00 0.00 91 1017.9
20260506082005 51 244 0.9 3.5 0.00 0.00 0.00 91 1017.9
20260506081506 51 242 0.9 2.6 0.00 0.00 0.00 90 1017.9
20260506081006 51 254 0.9 2.6 0.00 0.00 0.00 90 1017.9
20260506080502 51 234 0.0 1.7 0.00 0.00 0.00 90 1017.8
20260506073501 51 236 0.0 1.7 0.00 0.00 0.00 89 1017.6
20260506073000 51 248 0.0 1.7 0.00 0.00 0.00 89 1017.6
20260506072501 51 225 0.9 3.5 0.00 0.00 0.00 89 1017.6
20260506072005 52 219 1.7 4.3 0.00 0.00 0.00 89 1017.6
20260506072001 52 232 1.7 3.5 0.00 0.00 0.00 89 1017.6
20260506071005 52 215 1.7 3.5 0.00 0.00 0.00 89 1017.5
20260506071001 52 215 1.7 4.3 0.00 0.00 0.00 89 1017.6
20260506062459 52 248 0.9 2.6 0.00 0.00 0.00 88 1017.4
20260506062000 52 228 0.9 2.6 0.00 0.00 0.00 88 1017.4
20260506061459 52 243 0.9 2.6 0.00 0.00 0.00 88 1017.3
20260506060959 52 235 0.9 2.6 0.00 0.00 0.00 87 1017.3
20260506060501 53 232 0.9 7.0 0.00 0.00 0.00 87 1017.3
20260506050954 54 259 1.7 5.2 0.00 0.00 0.00 85 1017.1
20260506050455 54 223 1.7 5.2 0.00 0.00 0.00 85 1017.1
20260506044955 54 234 0.9 4.3 0.00 0.00 0.00 85 1017.0
20260506044454 54 236 1.7 6.1 0.00 0.00 0.00 85 1017.0
20260506043953 54 249 1.7 7.0 0.00 0.00 0.00 85 1016.9
20260506043453 54 234 1.7 7.0 0.00 0.00 0.00 85 1016.9
20260506042954 54 270 1.7 7.0 0.00 0.00 0.00 85 1016.8
20260506042451 54 266 1.7 6.1 0.00 0.00 0.00 85 1016.7
20260506041951 54 242 1.7 6.1 0.00 0.00 0.00 85 1016.6
20260506041451 54 284 0.9 6.1 0.00 0.00 0.00 85 1016.6
20260506040952 54 242 1.7 6.1 0.00 0.00 0.00 84 1016.4
20260506040450 54 255 0.9 6.1 0.00 0.00 0.00 84 1016.3
20260506035950 54 247 0.9 3.5 0.00 0.00 0.00 84 1016.3
20260506035451 55 223 1.7 7.8 0.00 0.00 0.00 83 1016.1
20260506035447 54 254 1.7 6.1 0.00 0.00 0.00 83 1016.2
20260506034447 55 273 1.7 7.8 0.00 0.00 0.00 83 1016.0
20260506033948 55 254 1.7 4.3 0.00 0.00 0.00 82 1015.9
20260506033446 55 272 1.7 7.8 0.00 0.00 0.00 82 1015.8
20260506033102 56 234 1.7 6.1 0.00 0.00 0.00 80 1015.6
20260506032952 56 257 1.7 5.2 0.00 0.00 0.00 80 1015.7
20260506032946 56 260 1.7 7.8 0.00 0.00 0.00 81 1015.7
20260506031447 57 261 2.6 6.1 0.00 0.00 0.00 79 1015.6
20260506030947 57 209 2.6 6.1 0.00 0.00 0.00 78 1015.6
20260506030447 58 266 1.7 5.2 0.00 0.00 0.00 78 1015.5